This demonstration page uses our WeatherBlox Daily Observations layout. Learn more.

Left ArrowRight Arrow

39.51506, -84.39828

Hourly Observations for October 21, 2018

Temp ( °F °C ) Dew Point ( °F °C ) Humidity (%) Winds ( mph kmh ) Pressure ( in mb ) Visibility ( mi km ) Precip ( " mm )
12:15 am 00:15 Mostly Cloudy 40 4.3 31 -0.8 70 70 NNW 15 24 30.24 1024 10 16.0934 0 0
12:35 am 00:35 Clear 38 3.5 30 -0.9 73 73 NW 13 20 30.27 1025 10 16.0934 0 0
12:55 am 00:55 Clear 38 3.1 30 -1 75 75 NNW 13 20 30.27 1025 10 16.0934 0 0
1:15 am 01:15 Clear 37 2.7 30 -1.2 76 76 NW 9 15 30.27 1025 10 16.0934 0 0
1:35 am 01:35 Clear 36 2.3 30 -1.3 77 77 WNW 8 13 30.27 1025 10 16.0934 0 0
1:55 am 01:55 Clear 36 2.1 29 -1.4 78 78 NW 9 15 30.3 1026 10 16.0934 0 0
2:15 am 02:15 Clear 35 1.7 29 -1.6 79 79 NW 5 7 30.3 1026 10 16.0934 0 0
2:35 am 02:35 Clear 34 1.3 29 -1.6 81 81 NW 6 9 30.3 1026 10 16.0934 0 0
2:55 am 02:55 Clear 34 0.9 29 -1.6 84 84 W 5 7 30.3 1026 10 16.0934 0 0
3:15 am 03:15 Clear 33 0.5 28 -2 84 84 W 3 6 30.33 1027 10 16.0934 0 0
3:35 am 03:35 Clear 33 0.5 29 -1.9 84 84 WSW 3 6 30.33 1027 10 16.0934 0 0
3:55 am 03:55 Partly Cloudy 32 0.1 29 -1.9 87 87 W 5 7 30.33 1027 10 16.0934 0 0
4:15 am 04:15 Cloudy 33 0.3 29 -1.4 89 89 WSW 3 6 30.33 1027 10 16.0934 0 0
4:35 am 04:35 Cloudy 33 0.8 30 -0.9 89 89 Calm 30.33 1027 10 16.0934 0 0
4:55 am 04:55 Cloudy 33 0.8 30 -1 88 88 Calm 30.33 1027 10 16.0934 0 0
5:15 am 05:15 Cloudy 34 1.1 30 -0.9 87 87 Calm 30.33 1027 10 16.0934 0 0
5:35 am 05:35 Mostly Cloudy 34 1 31 -0.8 88 88 Calm 30.36 1028 10 16.0934 0 0
5:55 am 05:55 Cloudy 33 0.5 30 -0.9 90 90 Calm 30.36 1028 10 16.0934 0 0
6:15 am 06:15 Partly Cloudy 34 1 31 -0.8 88 88 Calm 30.36 1028 10 16.0934 0 0
6:35 am 06:35 Mostly Cloudy 32 0 30 -1.1 92 92 Calm 30.36 1028 10 16.0934 0 0
6:55 am 06:55 Cloudy 34 0.9 31 -0.5 90 90 Calm 30.39 1029 10 16.0934 0 0
7:15 am 07:15 Cloudy 37 2.6 29 -1.5 75 75 NW 6 9 30.39 1029 10 16.0934 0 0
7:35 am 07:35 Cloudy 37 2.9 29 -1.9 71 71 WNW 7 11 30.39 1029 10 16.0934 0 0
7:55 am 07:55 Cloudy 37 3 28 -2 70 70 NW 6 9 30.39 1029 10 16.0934 0 0
8:15 am 08:15 Cloudy 38 3.2 28 -2 69 69 NW 6 9 30.39 1029 10 16.0934 0 0
8:35 am 08:35 Cloudy 38 3.3 29 -1.8 70 70 Calm 30.42 1030 10 16.0934 0 0
8:55 am 08:55 Cloudy 38 3.5 30 -1.2 72 72 NW 3 6 30.42 1030 10 16.0934 0 0
9:15 am 09:15 Cloudy 39 3.7 29 -1.7 68 68 NW 5 7 30.42 1030 10 16.0934 0 0
9:35 am 09:35 Cloudy 38 3.3 31 -0.8 75 75 W 7 11 30.45 1031 10 16.0934 0 0
9:55 am 09:55 Cloudy 38 3.5 31 -0.8 74 74 NW 3 6 30.45 1031 10 16.0934 0 0
10:15 am 10:15 Cloudy 39 3.8 30 -0.9 72 72 NW 6 9 30.45 1031 10 16.0934 0 0
10:35 am 10:35 Cloudy 39 4.1 28 -2.4 63 63 Calm 30.45 1031 10 16.0934 0 0
10:55 am 10:55 Cloudy 40 4.6 28 -2 63 63 NNE 7 11 30.42 1030 10 16.0934 0 0
11:15 am 11:15 Cloudy 40 4.7 28 -2.5 60 60 NNW 7 11 30.42 1030 10 16.0934 0 0
11:35 am 11:35 Cloudy 42 5.4 28 -2.1 59 59 NNE 3 6 30.42 1030 10 16.0934 0 0
11:55 am 11:55 Cloudy 42 5.8 28 -2.2 57 57 Calm 30.42 1030 10 16.0934 0 0
12:15 pm 12:15 Mostly Cloudy 42 5.3 28 -2.5 58 58 Calm 30.42 1030 10 16.0934 0 0
12:35 pm 12:35 Cloudy 44 6.4 28 -2.2 55 55 W 5 7 30.39 1029 10 16.0934 0 0
12:55 pm 12:55 Cloudy 44 6.7 29 -1.8 55 55 Calm 30.39 1029 10 16.0934 0 0
1:15 pm 13:15 Cloudy 45 7.2 29 -1.4 55 55 N 6 9 30.36 1028 10 16.0934 0 0
1:35 pm 13:35 Mostly Cloudy 46 7.6 30 -1.1 54 54 E 3 6 30.33 1027 10 16.0934 0 0
1:55 pm 13:55 Partly Cloudy 45 7.4 30 -1.3 54 54 SE 6 9 30.33 1027 10 16.0934 0 0
2:15 pm 14:15 Partly Cloudy 47 8.2 30 -1 53 53 E 5 7 30.33 1027 10 16.0934 0 0
2:35 pm 14:35 Partly Cloudy 47 8.3 30 -1.2 52 52 WSW 7 11 30.33 1027 10 16.0934 0 0
2:55 pm 14:55 Sunny 48 8.8 30 -1.1 50 50 WNW 7 11 30.3 1026 10 16.0934 0 0
3:15 pm 15:15 Sunny 48 9 29 -1.4 48 48 W 8 13 30.3 1026 10 16.0934 0 0
3:35 pm 15:35 Sunny 48 9.1 30 -1 50 50 W 8 13 30.3 1026 10 16.0934 0 0
3:55 pm 15:55 Sunny 49 9.4 31 -0.7 50 50 S 6 9 30.3 1026 10 16.0934 0 0
4:15 pm 16:15 Sunny 49 9.5 30 -0.9 49 49 WSW 6 9 30.27 1025 10 16.0934 0 0
4:35 pm 16:35 Sunny 50 9.8 31 -0.5 49 49 S 6 9 30.3 1026 10 16.0934 0 0
4:55 pm 16:55 Sunny 49 9.7 29 -1.4 46 46 Calm 30.27 1025 10 16.0934 0 0
5:15 pm 17:15 Sunny 49 9.5 29 -1.5 47 47 Calm 30.27 1025 10 16.0934 0 0
5:35 pm 17:35 Sunny 49 9.7 30 -1.3 47 47 WSW 7 11 30.27 1025 10 16.0934 0 0
5:55 pm 17:55 Sunny 49 9.6 30 -1.3 47 47 SSW 5 7 30.27 1025 10 16.0934 0 0
6:15 pm 18:15 Sunny 48 9 31 -0.8 51 51 SW 6 9 30.27 1025 10 16.0934 0 0
6:35 pm 18:35 Sunny 46 7.8 31 -0.7 55 55 SSW 5 7 30.27 1025 10 16.0934 0 0
6:55 pm 18:55 Clear 46 7.5 31 -0.8 56 56 Calm 30.27 1025 10 16.0934 0 0
7:15 pm 19:15 Clear 42 5.3 35 1.8 78 78 Calm 30.3 1026 10 16.0934 0 0
7:35 pm 19:35 Clear 40 4.5 35 1.7 82 82 Calm 30.3 1026 10 16.0934 0 0
7:55 pm 19:55 Clear 38 3.5 35 1.5 87 87 Calm 30.3 1026 10 16.0934 0 0
8:15 pm 20:15 Clear 38 3.5 34 1.3 86 86 Calm 30.3 1026 10 16.0934 0 0
8:35 pm 20:35 Clear 36 2.4 34 1.2 92 92 Calm 30.27 1025 10 16.0934 0 0
8:55 pm 20:55 Clear 37 2.7 35 1.5 92 92 Calm 30.27 1025 10 16.0934 0 0
9:15 pm 21:15 Clear 36 2 34 1.2 95 95 Calm 30.27 1025 10 16.0934 0 0
9:35 pm 21:35 Clear 35 1.7 33 0.8 94 94 Calm 30.27 1025 10 16.0934 0 0
9:55 pm 21:55 Clear 35 1.8 34 1.2 96 96 Calm 30.27 1025 10 16.0934 0 0
10:15 pm 22:15 Clear 35 1.6 34 1 96 96 Calm 30.27 1025 10 16.0934 0 0
10:35 pm 22:35 Clear 34 1.3 33 0.6 95 95 Calm 30.27 1025 10 16.0934 0 0
10:55 pm 22:55 Clear 34 1 33 0.3 95 95 Calm 30.27 1025 10 16.0934 0 0
11:15 pm 23:15 Clear 33 0.8 33 0.3 97 97 Calm 30.27 1025 10 16.0934 0 0
11:35 pm 23:35 Clear 32 0 31 -0.3 98 98 Calm 30.27 1025 10 16.0934 0 0
11:55 pm 23:55 Clear 33 0.6 33 0.3 98 98 Calm 30.27 1025 10 16.0934 0 0

Powered by AerisWeather